Crookston, MN

8:56 PM CDT on March 28, 2017 (GMT -0500)
Crookston Municipal-Kirkwood

Weather History for KCKN - October, 2013

Change the Weather History Date:

Friday, October 4, 2013

  Actual Average Record
Temperature  
Mean Temperature 44 °F -  
Max Temperature 46 °F 58 °F 86 °F (2011)
Min Temperature 41 °F 36 °F 21 °F (2000)
Degree Days  
Heating Degree Days 22    
Moisture  
Dew Point 39 °F    
Average Humidity 83    
Maximum Humidity 100    
Minimum Humidity 76    
Precipitation  
Precipitation 0.05 in - - ()
Sea Level Pressure  
Sea Level Pressure 30.17 in    
Wind  
Wind Speed 13 mph (NNE)    
Max Wind Speed 22 mph    
Max Gust Speed 31 mph    
Visibility 10 miles    
Events Rain    
Averages and records for this station are not official NWS values.
T = Trace of Precipitation, MM = Missing Value Source: NWS Daily Summary

Daily Weather History Graph

Daily Weather History Graph

Search for Another Location

Airport or City:

Trip Planner

Search our weather history database for the weather conditions in past years. The results will help you decide how hot, cold, wet, or windy it might be!

Date:

Astronomy

Oct. 04, 2013 Rise Set
Actual Time 7:30 AM CDT 6:59 PM CDT
Civil Twilight 6:59 AM CDT 7:29 PM CDT
Nautical Twilight 6:23 AM CDT 8:05 PM CDT
Astronomical Twilight 5:47 AM CDT 8:41 PM CDT
Moon 7:07 AM CDT (10/4) 6:39 PM CDT (10/4)
Length of Visible Light 12h 30m
Length of Day
11h 28m
Waning Crescent, 0% of the Moon is Illuminated
Oct 4
Waning Crescent
Oct 4
New
Oct 11
First Quarter
Oct 18
Full
Oct 26
Last Quarter

Hourly Weather History & Observations

Time (CDT) Temp. Windchill Dew Point Humidity Pressure Visibility Wind Dir Wind Speed Gust Speed Precip Events Conditions
12:14 AM 46.4 °F 41.5 °F 42.8 °F 87% 30.14 in 10.0 mi North 10.4 mph - N/A   Clear
12:34 AM 46.4 °F 41.9 °F 42.8 °F 87% 30.14 in 10.0 mi NNE 9.2 mph - N/A   Clear
12:55 AM 46.4 °F 41.5 °F 42.8 °F 87% 30.13 in 10.0 mi North 10.4 mph - N/A   Clear
1:14 AM 46.4 °F 41.1 °F 42.8 °F 87% 30.14 in 10.0 mi NNE 11.5 mph - N/A   Clear
1:35 AM 46.4 °F 41.9 °F 42.8 °F 87% 30.15 in 10.0 mi NNE 9.2 mph - N/A   Clear
1:54 AM 46.4 °F 41.5 °F 42.8 °F 87% 30.15 in 10.0 mi North 10.4 mph - N/A   Clear
2:14 AM 44.6 °F 39.2 °F 41.0 °F 87% 30.15 in 10.0 mi North 10.4 mph - N/A   Clear
2:35 AM 44.6 °F 38.8 °F 41.0 °F 87% 30.14 in 10.0 mi North 11.5 mph - N/A   Clear
2:54 AM 44.6 °F 38.8 °F 41.0 °F 87% 30.14 in 10.0 mi NNE 11.5 mph - N/A   Clear
3:15 AM 44.6 °F 38.4 °F 39.2 °F 81% 30.15 in 10.0 mi North 12.7 mph - N/A   Clear
3:34 AM 44.6 °F 38.8 °F 39.2 °F 81% 30.15 in 10.0 mi North 11.5 mph 17.3 mph N/A   Clear
3:55 AM 44.6 °F 38.8 °F 39.2 °F 81% 30.15 in 10.0 mi North 11.5 mph 18.4 mph N/A   Clear
4:14 AM 42.8 °F 36.2 °F 39.2 °F 87% 30.16 in 10.0 mi NNE 12.7 mph 18.4 mph N/A   Clear
4:34 AM 42.8 °F 35.8 °F 39.2 °F 87% 30.16 in 10.0 mi NNE 13.8 mph 21.9 mph N/A   Clear
4:54 AM 42.8 °F 35.1 °F 37.4 °F 81% 30.15 in 10.0 mi NNE 16.1 mph 19.6 mph N/A   Scattered Clouds
5:14 AM 42.8 °F 36.6 °F 37.4 °F 81% 30.17 in 10.0 mi NNE 11.5 mph 17.3 mph N/A   Mostly Cloudy
5:35 AM 42.8 °F 37.5 °F 37.4 °F 81% 30.19 in 10.0 mi NNE 9.2 mph - N/A   Mostly Cloudy
5:54 AM 42.8 °F 37.5 °F 37.4 °F 81% 30.18 in 10.0 mi NNE 9.2 mph - N/A   Mostly Cloudy
6:15 AM 42.8 °F 37.0 °F 37.4 °F 81% 30.19 in 10.0 mi North 10.4 mph - N/A   Mostly Cloudy
6:35 AM 42.8 °F 37.5 °F 37.4 °F 81% 30.20 in 10.0 mi NNE 9.2 mph - N/A   Overcast
6:54 AM 42.8 °F 36.2 °F 37.4 °F 81% 30.21 in 10.0 mi North 12.7 mph - N/A   Overcast
7:14 AM 42.8 °F 36.2 °F 37.4 °F 81% 30.21 in 10.0 mi North 12.7 mph 18.4 mph N/A   Overcast
7:34 AM 42.8 °F 36.2 °F 37.4 °F 81% 30.21 in 10.0 mi North 12.7 mph - N/A   Mostly Cloudy
7:54 AM 42.8 °F 36.6 °F 37.4 °F 81% 30.21 in 10.0 mi North 11.5 mph - N/A   Overcast
8:14 AM 42.8 °F 36.2 °F 37.4 °F 81% 30.22 in 10.0 mi NNE 12.7 mph 18.4 mph N/A   Overcast
8:35 AM 42.8 °F 36.2 °F 37.4 °F 81% 30.23 in 10.0 mi North 12.7 mph 18.4 mph N/A   Overcast
8:54 AM 42.8 °F 37.0 °F 37.4 °F 81% 30.24 in 10.0 mi North 10.4 mph 17.3 mph N/A   Overcast
9:15 AM 42.8 °F 36.2 °F 37.4 °F 81% 30.23 in 10.0 mi NNE 12.7 mph 20.7 mph N/A   Overcast
9:35 AM 42.8 °F 35.1 °F 37.4 °F 81% 30.23 in 10.0 mi NNE 16.1 mph 19.6 mph N/A   Mostly Cloudy
9:55 AM 42.8 °F 35.4 °F 37.4 °F 81% 30.23 in 10.0 mi NNE 15.0 mph 18.4 mph N/A   Scattered Clouds
10:15 AM 42.8 °F 36.2 °F 37.4 °F 81% 30.24 in 10.0 mi North 12.7 mph - N/A   Mostly Cloudy
10:34 AM 42.8 °F 35.4 °F 37.4 °F 81% 30.24 in 10.0 mi NNE 15.0 mph 19.6 mph N/A   Overcast
10:55 AM 42.8 °F 34.8 °F 37.4 °F 81% 30.23 in 10.0 mi NNE 17.3 mph 23.0 mph N/A   Overcast
11:14 AM 44.6 °F 38.8 °F 39.2 °F 81% 30.22 in 10.0 mi NNE 11.5 mph 18.4 mph N/A   Overcast
11:34 AM 44.6 °F 37.4 °F 37.4 °F 76% 30.21 in 10.0 mi NNE 16.1 mph 23.0 mph N/A   Overcast
11:55 AM 44.6 °F 38.1 °F 39.2 °F 81% 30.20 in 10.0 mi NNE 13.8 mph - N/A   Mostly Cloudy
12:14 PM 44.6 °F 37.4 °F 39.2 °F 81% 30.20 in 10.0 mi NNE 16.1 mph 23.0 mph N/A   Scattered Clouds
12:35 PM 46.4 °F 41.1 °F 41.0 °F 81% 30.21 in 10.0 mi NNE 11.5 mph 19.6 mph N/A Rain Light Rain
12:55 PM 46.4 °F 40.4 °F 41.0 °F 81% 30.20 in 10.0 mi NNE 13.8 mph 21.9 mph N/A   Overcast
1:14 PM 46.4 °F 40.1 °F 41.0 °F 81% 30.20 in 10.0 mi NNE 15.0 mph 18.4 mph N/A   Mostly Cloudy
1:35 PM 46.4 °F 40.7 °F 41.0 °F 81% 30.20 in 10.0 mi NE 12.7 mph 21.9 mph N/A   Scattered Clouds
1:54 PM 46.4 °F 40.4 °F 42.8 °F 87% 30.20 in 10.0 mi NNE 13.8 mph 17.3 mph N/A   Drizzle
2:15 PM 46.4 °F 40.1 °F 41.0 °F 81% 30.19 in 10.0 mi NNE 15.0 mph 20.7 mph N/A   Drizzle
2:34 PM 44.6 °F 37.4 °F 41.0 °F 87% 30.18 in 10.0 mi NNE 16.1 mph 21.9 mph N/A   Light Drizzle
2:54 PM 44.6 °F 37.4 °F 41.0 °F 87% 30.18 in 10.0 mi NNE 16.1 mph 23.0 mph N/A   Light Drizzle
3:15 PM 44.6 °F 38.1 °F 41.0 °F 87% 30.18 in 10.0 mi NNE 13.8 mph 20.7 mph N/A   Drizzle
3:34 PM 44.6 °F 36.9 °F 39.2 °F 81% 30.18 in 10.0 mi NNE 18.4 mph 25.3 mph N/A   Light Drizzle
3:55 PM 46.4 °F 38.7 °F 39.2 °F 76% 30.17 in 10.0 mi NNE 20.7 mph 27.6 mph N/A   Clear
4:14 PM 46.4 °F 40.1 °F 39.2 °F 76% 30.17 in 10.0 mi NNE 15.0 mph 31.1 mph N/A   Scattered Clouds
4:34 PM 46.4 °F 38.7 °F 39.2 °F 76% 30.16 in 10.0 mi NNE 20.7 mph 31.1 mph N/A   Scattered Clouds
4:55 PM 44.6 °F 37.8 °F 37.4 °F 76% 30.15 in 10.0 mi NNE 15.0 mph 27.6 mph N/A   Scattered Clouds
5:14 PM 44.6 °F 37.4 °F 37.4 °F 76% 30.15 in 10.0 mi NNE 16.1 mph 25.3 mph N/A   Mostly Cloudy
5:35 PM 44.6 °F 36.1 °F 37.4 °F 76% 30.15 in 10.0 mi NE 21.9 mph 26.5 mph N/A   Mostly Cloudy
5:55 PM 44.6 °F 36.9 °F 37.4 °F 76% 30.17 in 10.0 mi NE 18.4 mph 24.2 mph N/A   Overcast
6:14 PM 44.6 °F 38.1 °F 37.4 °F 76% 30.17 in 10.0 mi NNE 13.8 mph 24.2 mph N/A   Overcast
6:35 PM 44.6 °F 37.4 °F 37.4 °F 76% 30.17 in 10.0 mi NE 16.1 mph 23.0 mph N/A   Overcast
6:54 PM 44.6 °F 38.1 °F 39.2 °F 81% 30.16 in 10.0 mi NNE 13.8 mph 20.7 mph N/A Rain Rain
7:14 PM 44.6 °F 38.8 °F 39.2 °F 81% 30.16 in 10.0 mi NNE 11.5 mph 19.6 mph N/A   Drizzle
7:35 PM 44.6 °F 38.4 °F 39.2 °F 81% 30.16 in 10.0 mi NNE 12.7 mph 19.6 mph N/A   Overcast
7:54 PM 44.6 °F 37.4 °F 37.4 °F 76% 30.15 in 10.0 mi NNE 16.1 mph 21.9 mph N/A   Light Drizzle
8:15 PM 44.6 °F 37.4 °F 37.4 °F 76% 30.14 in 10.0 mi NNE 16.1 mph 21.9 mph N/A   Overcast
8:34 PM 44.6 °F 37.8 °F 37.4 °F 76% 30.14 in 10.0 mi NNE 15.0 mph 23.0 mph N/A   Overcast
8:54 PM 44.6 °F 38.1 °F 39.2 °F 81% 30.15 in 10.0 mi NNE 13.8 mph 27.6 mph N/A Rain Rain
9:15 PM 42.8 °F 35.4 °F 39.2 °F 87% 30.15 in 7.0 mi NE 15.0 mph 25.3 mph 0.01 in Rain Light Rain
9:34 PM 42.8 °F 35.1 °F 39.2 °F 87% 30.15 in 7.0 mi NNE 16.1 mph 25.3 mph 0.02 in Rain Light Rain
9:55 PM 42.8 °F 34.5 °F 41.0 °F 93% 30.13 in 7.0 mi NNE 18.4 mph 27.6 mph 0.01 in Rain Rain
10:14 PM 42.8 °F 34.5 °F 41.0 °F 93% 30.12 in 7.0 mi NE 18.4 mph 24.2 mph 0.01 in Rain Rain
10:34 PM 41.0 °F 32.2 °F 41.0 °F 100% 30.12 in 7.0 mi NNE 18.4 mph 25.3 mph 0.02 in Rain Light Rain
10:55 PM 41.0 °F 32.8 °F 41.0 °F 100% 30.12 in 5.0 mi NE 16.1 mph 25.3 mph 0.01 in Rain Rain
11:14 PM 42.8 °F 35.1 °F 41.0 °F 93% 30.11 in 5.0 mi NE 16.1 mph 23.0 mph 0.01 in   Drizzle
11:35 PM 42.8 °F 35.1 °F 41.0 °F 93% 30.10 in 10.0 mi NE 16.1 mph 24.2 mph 0.01 in   Light Drizzle
11:55 PM 42.8 °F 34.5 °F 41.0 °F 93% 30.07 in 5.0 mi NE 18.4 mph 25.3 mph N/A   Drizzle